Time,TemperatureF,DewpointF,PressureIn,WindDirection,WindDirectionDegrees,WindSpeedMPH,WindSpeedGustMPH,Humidity,HourlyPrecipIn,Conditions,Clouds,dailyrainin,SolarRadiationWatts/m^2,SoftwareType,DateUTC
2013-04-08 00:00:00,49.9,38.2,29.84,WSW,237,8.0,14.0,64,0.00,,,0.00,0.00,VWS V14.00,2013-04-08 04:00:00,
2013-04-08 00:01:00,49.8,38.1,29.84,West,260,6.0,7.0,64,0.00,,,0.00,0.00,VWS V14.00,2013-04-08 04:01:00,
2013-04-08 00:06:00,49.7,38.0,29.84,WSW,238,13.0,18.0,64,0.00,,,0.00,0.00,VWS V14.00,2013-04-08 04:06:00,
2013-04-08 00:11:00,49.7,38.0,29.84,West,277,14.0,16.0,64,0.00,,,0.00,0.00,VWS V14.00,2013-04-08 04:11:00,
2013-04-08 00:16:00,49.6,37.9,29.84,West,264,12.0,13.0,64,0.00,,,0.00,0.00,VWS V14.00,2013-04-08 04:16:00,
2013-04-08 00:21:00,49.5,37.8,29.85,West,271,9.0,15.0,64,0.00,,,0.00,0.00,VWS V14.00,2013-04-08 04:21:00,
2013-04-08 00:26:00,49.3,37.7,29.85,West,272,6.0,12.0,64,0.00,,,0.00,0.00,VWS V14.00,2013-04-08 04:26:00,
2013-04-08 00:31:00,49.1,37.5,29.85,WSW,255,2.0,11.0,64,0.00,,,0.00,0.00,VWS V14.00,2013-04-08 04:31:00,
2013-04-08 00:36:00,49.0,37.4,29.87,South,182,0.0,3.0,64,0.00,,,0.00,0.00,VWS V14.00,2013-04-08 04:36:00,
2013-04-08 00:42:00,48.8,37.2,29.87,SSE,152,1.0,4.0,64,0.00,,,0.00,0.00,VWS V14.00,2013-04-08 04:42:00,
2013-04-08 00:47:00,48.6,37.0,29.87,WSW,238,3.0,9.0,64,0.00,,,0.00,0.00,VWS V14.00,2013-04-08 04:47:00,
2013-04-08 00:52:00,48.5,36.9,29.88,West,275,0.0,3.0,64,0.00,,,0.00,0.00,VWS V14.00,2013-04-08 04:52:00,
2013-04-08 00:57:00,48.4,36.8,29.88,SW,228,3.0,4.0,64,0.00,,,0.00,0.00,VWS V14.00,2013-04-08 04:57:00,
2013-04-08 01:02:00,48.3,36.7,29.88,WSW,242,7.0,10.0,64,0.00,,,0.00,0.00,VWS V14.00,2013-04-08 05:02:00,
2013-04-08 01:07:00,48.0,36.4,29.88,West,269,4.0,7.0,64,0.00,,,0.00,0.00,VWS V14.00,2013-04-08 05:07:00,
2013-04-08 01:12:00,47.7,36.5,29.88,WSW,243,8.0,11.0,65,0.00,,,0.00,0.00,VWS V14.00,2013-04-08 05:12:00,
2013-04-08 01:17:00,47.3,36.2,29.88,West,271,6.0,10.0,65,0.00,,,0.00,0.00,VWS V14.00,2013-04-08 05:17:00,
2013-04-08 01:22:00,47.0,35.9,29.88,WSW,257,4.0,6.0,65,0.00,,,0.00,0.00,VWS V14.00,2013-04-08 05:22:00,
2013-04-08 01:27:00,46.6,35.9,29.88,West,267,6.0,13.0,66,0.00,,,0.00,0.00,VWS V14.00,2013-04-08 05:27:00,
2013-04-08 01:32:00,46.3,35.2,29.88,WSW,257,8.0,13.0,65,0.00,,,0.00,0.00,VWS V14.00,2013-04-08 05:32:00,
2013-04-08 01:37:00,46.0,34.9,29.88,West,278,15.0,15.0,65,0.00,,,0.00,0.00,VWS V14.00,2013-04-08 05:37:00,
2013-04-08 01:42:00,45.6,34.5,29.89,West,270,12.0,17.0,65,0.00,,,0.00,0.00,VWS V14.00,2013-04-08 05:42:00,
2013-04-08 01:47:00,45.4,34.3,29.89,NNW,338,9.0,15.0,65,0.00,,,0.00,0.00,VWS V14.00,2013-04-08 05:47:00,
2013-04-08 01:52:00,45.0,34.3,29.89,West,271,7.0,9.0,66,0.00,,,0.00,0.00,VWS V14.00,2013-04-08 05:52:00,
2013-04-08 01:57:00,44.8,34.2,29.89,West,275,12.0,12.0,66,0.00,,,0.00,0.00,VWS V14.00,2013-04-08 05:57:00,
2013-04-08 02:02:00,44.5,33.9,29.89,WSW,254,10.0,10.0,66,0.00,,,0.00,0.00,VWS V14.00,2013-04-08 06:02:00,
2013-04-08 02:07:00,44.3,34.0,29.90,West,266,5.0,12.0,67,0.00,,,0.00,0.00,VWS V14.00,2013-04-08 06:07:00,
2013-04-08 02:12:00,44.0,33.8,29.89,West,266,5.0,11.0,67,0.00,,,0.00,0.00,VWS V14.00,2013-04-08 06:12:00,
2013-04-08 02:17:00,43.8,33.6,29.90,West,262,6.0,12.0,67,0.00,,,0.00,0.00,VWS V14.00,2013-04-08 06:17:00,
2013-04-08 02:22:00,43.6,33.8,29.90,WNW,282,7.0,10.0,68,0.00,,,0.00,0.00,VWS V14.00,2013-04-08 06:22:00,
2013-04-08 02:27:00,43.4,33.6,29.90,West,272,7.0,12.0,68,0.00,,,0.00,0.00,VWS V14.00,2013-04-08 06:27:00,
2013-04-08 02:32:00,43.2,33.4,29.90,West,273,7.0,12.0,68,0.00,,,0.00,0.00,VWS V14.00,2013-04-08 06:32:00,
2013-04-08 02:37:00,43.0,33.5,29.90,WSW,254,12.0,17.0,69,0.00,,,0.00,0.00,VWS V14.00,2013-04-08 06:37:00,
2013-04-08 02:42:00,42.8,33.3,29.91,West,275,8.0,12.0,69,0.00,,,0.00,0.00,VWS V14.00,2013-04-08 06:42:00,
2013-04-08 02:47:00,42.7,33.2,29.91,WSW,255,7.0,15.0,69,0.00,,,0.00,0.00,VWS V14.00,2013-04-08 06:47:00,
2013-04-08 02:52:00,42.6,33.2,29.91,WNW,284,6.0,7.0,69,0.00,,,0.00,0.00,VWS V14.00,2013-04-08 06:52:00,
2013-04-08 02:57:00,42.4,33.0,29.91,West,268,7.0,11.0,69,0.00,,,0.00,0.00,VWS V14.00,2013-04-08 06:57:00,
2013-04-08 03:02:00,42.3,33.2,29.92,WNW,298,2.0,7.0,70,0.00,,,0.00,0.00,VWS V14.00,2013-04-08 07:02:00,
2013-04-08 03:07:00,42.2,33.1,29.92,West,273,4.0,5.0,70,0.00,,,0.00,0.00,VWS V14.00,2013-04-08 07:07:00,
2013-04-08 03:12:00,42.1,33.0,29.92,WNW,294,0.0,4.0,70,0.00,,,0.00,0.00,VWS V14.00,2013-04-08 07:12:00,
2013-04-08 03:17:00,41.9,32.8,29.92,West,269,1.0,5.0,70,0.00,,,0.00,0.00,VWS V14.00,2013-04-08 07:17:00,
2013-04-08 03:22:00,41.8,32.8,29.92,West,269,7.0,10.0,70,0.00,,,0.00,0.00,VWS V14.00,2013-04-08 07:22:00,
2013-04-08 03:27:00,41.6,32.6,29.93,WNW,282,2.0,3.0,70,0.00,,,0.00,0.00,VWS V14.00,2013-04-08 07:27:00,
2013-04-08 03:32:00,41.5,32.5,29.93,WSW,257,3.0,5.0,70,0.00,,,0.00,0.00,VWS V14.00,2013-04-08 07:32:00,
2013-04-08 03:37:00,41.3,32.6,29.93,NW,306,5.0,5.0,71,0.00,,,0.00,0.00,VWS V14.00,2013-04-08 07:37:00,
2013-04-08 03:42:00,41.2,32.5,29.93,NW,319,4.0,6.0,71,0.00,,,0.00,0.00,VWS V14.00,2013-04-08 07:42:00,
2013-04-08 03:47:00,40.9,32.2,29.93,NW,311,1.0,6.0,71,0.00,,,0.00,0.00,VWS V14.00,2013-04-08 07:47:00,
2013-04-08 03:52:00,40.8,32.5,29.93,NW,307,2.0,6.0,72,0.00,,,0.00,0.00,VWS V14.00,2013-04-08 07:52:00,
2013-04-08 03:57:00,40.7,32.4,29.93,NW,316,0.0,5.0,72,0.00,,,0.00,0.00,VWS V14.00,2013-04-08 07:57:00,
2013-04-08 04:02:00,40.6,32.3,29.94,NW,306,2.0,4.0,72,0.00,,,0.00,0.00,VWS V14.00,2013-04-08 08:02:00,
2013-04-08 04:07:00,40.5,32.2,29.94,NW,317,3.0,5.0,72,0.00,,,0.00,0.00,VWS V14.00,2013-04-08 08:07:00,
2013-04-08 04:12:00,40.3,32.0,29.94,NW,309,2.0,5.0,72,0.00,,,0.00,0.00,VWS V14.00,2013-04-08 08:12:00,
2013-04-08 04:17:00,40.2,31.9,29.94,NW,309,0.0,3.0,72,0.00,,,0.00,0.00,VWS V14.00,2013-04-08 08:17:00,
2013-04-08 04:23:00,40.1,33.2,29.95,NW,309,1.0,2.0,76,0.00,,,0.00,0.00,VWS V14.00,2013-04-08 08:23:00,
2013-04-08 04:28:00,40.0,32.1,29.94,NW,309,2.0,5.0,73,0.00,,,0.00,0.00,VWS V14.00,2013-04-08 08:28:00,
2013-04-08 04:33:00,39.9,32.0,29.95,NW,306,4.0,7.0,73,0.00,,,0.00,0.00,VWS V14.00,2013-04-08 08:33:00,
2013-04-08 04:38:00,40.0,32.1,29.95,NW,312,2.0,5.0,73,0.00,,,0.00,0.00,VWS V14.00,2013-04-08 08:38:00,
2013-04-08 04:43:00,40.0,32.4,29.96,NW,320,4.0,7.0,74,0.00,,,0.00,0.00,VWS V14.00,2013-04-08 08:43:00,
2013-04-08 04:48:00,40.0,32.4,29.96,NW,308,4.0,6.0,74,0.00,,,0.00,0.00,VWS V14.00,2013-04-08 08:48:00,
2013-04-08 04:53:00,40.0,32.4,29.95,NW,315,0.0,2.0,74,0.00,,,0.00,0.00,VWS V14.00,2013-04-08 08:53:00,
2013-04-08 04:58:00,39.9,32.3,29.95,NW,315,0.0,1.0,74,0.00,,,0.00,0.00,VWS V14.00,2013-04-08 08:58:00,
2013-04-08 05:03:00,39.8,31.9,29.95,NW,316,0.0,1.0,73,0.00,,,0.00,0.00,VWS V14.00,2013-04-08 09:03:00,
2013-04-08 05:08:00,39.7,31.8,29.96,NW,316,0.0,1.0,73,0.00,,,0.00,0.00,VWS V14.00,2013-04-08 09:08:00,
2013-04-08 05:13:00,39.6,31.7,29.97,NW,316,0.0,0.0,73,0.00,,,0.00,0.00,VWS V14.00,2013-04-08 09:13:00,
2013-04-08 05:18:00,39.5,31.6,29.96,NW,316,0.0,1.0,73,0.00,,,0.00,0.00,VWS V14.00,2013-04-08 09:18:00,
2013-04-08 05:23:00,39.4,31.5,29.96,NW,316,1.0,1.0,73,0.00,,,0.00,0.00,VWS V14.00,2013-04-08 09:23:00,
2013-04-08 05:28:00,39.2,31.6,29.97,NW,316,0.0,0.0,74,0.00,,,0.00,0.00,VWS V14.00,2013-04-08 09:28:00,
2013-04-08 05:33:00,39.1,31.5,29.97,NW,316,0.0,1.0,74,0.00,,,0.00,0.00,VWS V14.00,2013-04-08 09:33:00,
2013-04-08 05:38:00,38.9,31.3,29.97,WNW,298,0.0,3.0,74,0.00,,,0.00,0.00,VWS V14.00,2013-04-08 09:38:00,
2013-04-08 05:43:00,38.8,31.6,29.97,WNW,298,0.0,1.0,75,0.00,,,0.00,0.00,VWS V14.00,2013-04-08 09:43:00,
2013-04-08 05:48:00,38.7,31.5,29.97,WNW,298,0.0,0.0,75,0.00,,,0.00,0.00,VWS V14.00,2013-04-08 09:48:00,
2013-04-08 05:53:00,38.7,31.8,29.97,WNW,298,1.0,2.0,76,0.00,,,0.00,0.00,VWS V14.00,2013-04-08 09:53:00,
2013-04-08 05:58:00,38.5,31.6,29.97,WNW,298,0.0,0.0,76,0.00,,,0.00,0.00,VWS V14.00,2013-04-08 09:58:00,
2013-04-08 06:03:00,38.4,31.5,29.98,WNW,298,0.0,0.0,76,0.00,,,0.00,0.00,VWS V14.00,2013-04-08 10:03:00,
2013-04-08 06:08:00,38.3,31.4,29.98,WNW,298,0.0,1.0,76,0.00,,,0.00,0.00,VWS V14.00,2013-04-08 10:08:00,
2013-04-08 06:13:00,38.2,31.3,29.98,WNW,298,0.0,0.0,76,0.00,,,0.00,0.00,VWS V14.00,2013-04-08 10:13:00,
2013-04-08 06:18:00,38.0,31.1,29.98,WNW,298,0.0,1.0,76,0.00,,,0.00,0.00,VWS V14.00,2013-04-08 10:18:00,
2013-04-08 06:23:00,37.9,31.4,29.98,WNW,298,0.0,0.0,77,0.00,,,0.00,0.00,VWS V14.00,2013-04-08 10:23:00,
2013-04-08 06:28:00,37.8,31.2,29.98,WNW,298,0.0,0.0,77,0.00,,,0.00,5.00,VWS V14.00,2013-04-08 10:28:00,
2013-04-08 06:34:00,37.7,31.1,29.99,WNW,298,0.0,0.0,77,0.00,,,0.00,9.00,VWS V14.00,2013-04-08 10:34:00,
2013-04-08 06:39:00,37.7,31.1,30.00,WNW,298,0.0,1.0,77,0.00,,,0.00,12.00,VWS V14.00,2013-04-08 10:39:00,
2013-04-08 06:44:00,37.6,31.1,30.00,WNW,298,0.0,1.0,77,0.00,,,0.00,14.00,VWS V14.00,2013-04-08 10:44:00,
2013-04-08 06:49:00,37.5,31.3,30.00,WNW,298,0.0,2.0,78,0.00,,,0.00,18.00,VWS V14.00,2013-04-08 10:49:00,
2013-04-08 06:54:00,37.5,31.3,30.00,WNW,298,0.0,1.0,78,0.00,,,0.00,25.00,VWS V14.00,2013-04-08 10:54:00,
2013-04-08 06:59:00,37.6,31.4,30.01,WNW,298,0.0,1.0,78,0.00,,,0.00,30.00,VWS V14.00,2013-04-08 10:59:00,
2013-04-08 07:04:00,37.6,31.7,30.01,WNW,298,0.0,1.0,79,0.00,,,0.00,37.00,VWS V14.00,2013-04-08 11:04:00,
2013-04-08 07:09:00,37.7,31.8,30.01,WNW,298,0.0,1.0,79,0.00,,,0.00,47.00,VWS V14.00,2013-04-08 11:09:00,
2013-04-08 07:14:00,37.8,31.9,30.02,WNW,298,1.0,3.0,79,0.00,,,0.00,54.00,VWS V14.00,2013-04-08 11:14:00,
2013-04-08 07:19:00,38.0,32.1,30.02,NW,310,0.0,5.0,79,0.00,,,0.00,79.00,VWS V14.00,2013-04-08 11:19:00,
2013-04-08 07:24:00,38.3,32.4,30.02,NW,310,0.0,5.0,79,0.00,,,0.00,90.00,VWS V14.00,2013-04-08 11:24:00,
2013-04-08 07:29:00,38.6,32.7,30.02,NW,310,0.0,2.0,79,0.00,,,0.00,113.00,VWS V14.00,2013-04-08 11:29:00,
2013-04-08 07:34:00,38.9,33.0,30.03,NW,310,0.0,2.0,79,0.00,,,0.00,104.00,VWS V14.00,2013-04-08 11:34:00,
2013-04-08 07:39:00,39.3,33.0,30.03,NW,310,0.0,2.0,78,0.00,,,0.00,67.00,VWS V14.00,2013-04-08 11:39:00,
2013-04-08 07:44:00,39.5,32.9,30.04,NW,310,0.0,0.0,77,0.00,,,0.00,56.00,VWS V14.00,2013-04-08 11:44:00,
2013-04-08 07:49:00,39.7,33.1,30.04,NW,310,0.0,1.0,77,0.00,,,0.00,84.00,VWS V14.00,2013-04-08 11:49:00,
2013-04-08 07:54:00,39.9,33.0,30.04,NW,310,0.0,1.0,76,0.00,,,0.00,62.00,VWS V14.00,2013-04-08 11:54:00,
2013-04-08 07:59:00,40.1,32.8,30.05,NW,310,0.0,0.0,75,0.00,,,0.00,44.00,VWS V14.00,2013-04-08 11:59:00,
2013-04-08 08:04:00,40.3,32.7,30.05,NW,310,1.0,2.0,74,0.00,,,0.00,53.00,VWS V14.00,2013-04-08 12:04:00,
2013-04-08 08:09:00,40.5,33.2,30.05,SSE,158,0.0,5.0,75,0.00,,,0.00,102.00,VWS V14.00,2013-04-08 12:09:00,
2013-04-08 08:14:00,40.7,33.7,30.05,SSE,155,1.0,3.0,76,0.00,,,0.00,116.00,VWS V14.00,2013-04-08 12:14:00,
2013-04-08 08:19:00,40.7,33.7,30.05,SE,142,3.0,7.0,76,0.00,,,0.00,97.00,VWS V14.00,2013-04-08 12:19:00,
2013-04-08 08:24:00,40.7,33.7,30.05,SE,141,5.0,6.0,76,0.00,,,0.00,95.00,VWS V14.00,2013-04-08 12:24:00,
2013-04-08 08:30:00,40.6,33.6,30.05,SE,146,0.0,6.0,76,0.00,,,0.00,113.00,VWS V14.00,2013-04-08 12:30:00,
2013-04-08 08:35:00,40.5,33.9,30.05,SSE,154,3.0,5.0,77,0.00,,,0.00,88.00,VWS V14.00,2013-04-08 12:35:00,
2013-04-08 08:40:00,40.4,33.8,30.05,SE,141,7.0,8.0,77,0.00,,,0.00,98.00,VWS V14.00,2013-04-08 12:40:00,
2013-04-08 08:45:00,40.2,33.6,30.05,SSE,157,3.0,9.0,77,0.00,,,0.00,132.00,VWS V14.00,2013-04-08 12:45:00,
2013-04-08 08:50:00,40.1,33.5,30.05,SSE,147,5.0,8.0,77,0.00,,,0.00,127.00,VWS V14.00,2013-04-08 12:50:00,
2013-04-08 08:55:00,40.0,33.4,30.06,SE,145,3.0,5.0,77,0.00,,,0.00,100.00,VWS V14.00,2013-04-08 12:55:00,
2013-04-08 09:00:00,40.0,33.4,30.05,SSE,164,0.0,3.0,77,0.00,,,0.00,121.00,VWS V14.00,2013-04-08 13:00:00,
2013-04-08 09:05:00,40.0,33.4,30.05,SSE,149,0.0,5.0,77,0.00,,,0.00,158.00,VWS V14.00,2013-04-08 13:05:00,
2013-04-08 09:10:00,40.0,33.1,30.05,SSE,149,2.0,4.0,76,0.00,,,0.00,148.00,VWS V14.00,2013-04-08 13:10:00,
2013-04-08 09:15:00,40.1,33.2,30.05,SSE,150,0.0,4.0,76,0.00,,,0.00,172.00,VWS V14.00,2013-04-08 13:15:00,
2013-04-08 09:20:00,40.2,33.2,30.05,SSE,152,2.0,6.0,76,0.00,,,0.00,204.00,VWS V14.00,2013-04-08 13:20:00,
2013-04-08 09:25:00,40.4,33.5,30.05,SSE,160,5.0,5.0,76,0.00,,,0.00,188.00,VWS V14.00,2013-04-08 13:25:00,
2013-04-08 09:30:00,40.5,33.2,30.05,ENE,64,5.0,5.0,75,0.00,,,0.00,193.00,VWS V14.00,2013-04-08 13:30:00,
2013-04-08 09:35:00,40.6,33.0,30.05,ESE,106,4.0,5.0,74,0.00,,,0.00,241.00,VWS V14.00,2013-04-08 13:35:00,
2013-04-08 09:40:00,40.7,32.7,30.06,ESE,104,0.0,4.0,73,0.00,,,0.00,264.00,VWS V14.00,2013-04-08 13:40:00,
2013-04-08 09:45:00,41.0,33.0,30.06,East,85,0.0,5.0,73,0.00,,,0.00,272.00,VWS V14.00,2013-04-08 13:45:00,
2013-04-08 09:50:00,41.3,33.0,30.07,East,93,0.0,4.0,72,0.00,,,0.00,285.00,VWS V14.00,2013-04-08 13:50:00,
2013-04-08 09:55:00,41.5,33.2,30.07,East,93,0.0,2.0,72,0.00,,,0.00,336.00,VWS V14.00,2013-04-08 13:55:00,
2013-04-08 10:01:00,41.8,33.5,30.07,SE,142,2.0,3.0,72,0.00,,,0.00,313.00,VWS V14.00,2013-04-08 14:01:00,
2013-04-08 10:06:00,42.1,33.4,30.07,SE,142,0.0,6.0,71,0.00,,,0.00,318.00,VWS V14.00,2013-04-08 14:06:00,
2013-04-08 10:11:00,42.4,33.3,30.08,SE,134,0.0,4.0,70,0.00,,,0.00,323.00,VWS V14.00,2013-04-08 14:11:00,
2013-04-08 10:16:00,42.7,33.2,30.08,SSE,165,6.0,9.0,69,0.00,,,0.00,436.00,VWS V14.00,2013-04-08 14:16:00,
2013-04-08 10:20:00,43.0,33.9,30.08,East,87,5.0,6.0,70,0.00,,,0.00,561.00,VWS V14.00,2013-04-08 14:20:00,
2013-04-08 10:26:00,43.2,33.4,30.08,East,92,2.0,6.0,68,0.00,,,0.00,378.00,VWS V14.00,2013-04-08 14:26:00,
2013-04-08 10:31:00,43.3,33.1,30.08,ESE,120,1.0,5.0,67,0.00,,,0.00,411.00,VWS V14.00,2013-04-08 14:31:00,
2013-04-08 10:36:00,43.3,33.5,30.09,SE,139,1.0,4.0,68,0.00,,,0.00,485.00,VWS V14.00,2013-04-08 14:36:00,
2013-04-08 10:41:00,43.6,33.4,30.09,ENE,63,1.0,10.0,67,0.00,,,0.00,490.00,VWS V14.00,2013-04-08 14:41:00,
2013-04-08 10:46:00,43.7,33.1,30.09,East,92,7.0,8.0,66,0.00,,,0.00,376.00,VWS V14.00,2013-04-08 14:46:00,
2013-04-08 10:51:00,43.7,33.1,30.09,East,101,1.0,8.0,66,0.00,,,0.00,490.00,VWS V14.00,2013-04-08 14:51:00,
2013-04-08 10:56:00,44.0,33.4,30.08,SSE,149,2.0,6.0,66,0.00,,,0.00,819.00,VWS V14.00,2013-04-08 14:56:00,
2013-04-08 11:01:00,44.4,33.8,30.08,SE,138,2.0,9.0,66,0.00,,,0.00,469.00,VWS V14.00,2013-04-08 15:01:00,
2013-04-08 11:06:00,44.8,34.2,30.09,ESE,109,7.0,9.0,66,0.00,,,0.00,417.00,VWS V14.00,2013-04-08 15:06:00,
2013-04-08 11:11:00,44.9,33.9,30.10,SSE,149,4.0,9.0,65,0.00,,,0.00,417.00,VWS V14.00,2013-04-08 15:11:00,
2013-04-08 11:16:00,45.1,34.0,30.10,ESE,102,8.0,8.0,65,0.00,,,0.00,715.00,VWS V14.00,2013-04-08 15:16:00,
2013-04-08 11:21:00,45.4,34.3,30.10,ENE,61,3.0,8.0,65,0.00,,,0.00,756.00,VWS V14.00,2013-04-08 15:21:00,
2013-04-08 11:26:00,45.7,34.2,30.09,ESE,107,1.0,9.0,64,0.00,,,0.00,888.00,VWS V14.00,2013-04-08 15:26:00,
2013-04-08 11:31:00,45.9,34.0,30.09,ENE,74,3.0,3.0,63,0.00,,,0.00,838.00,VWS V14.00,2013-04-08 15:31:00,
2013-04-08 11:36:00,46.0,33.7,30.09,East,96,3.0,3.0,62,0.00,,,0.00,877.00,VWS V14.00,2013-04-08 15:36:00,
2013-04-08 11:41:00,46.1,33.8,30.09,East,91,7.0,7.0,62,0.00,,,0.00,817.00,VWS V14.00,2013-04-08 15:41:00,
2013-04-08 11:46:00,46.3,34.4,30.08,East,97,5.0,6.0,63,0.00,,,0.00,819.00,VWS V14.00,2013-04-08 15:46:00,
2013-04-08 11:51:00,46.5,34.6,30.09,SW,233,1.0,2.0,63,0.00,,,0.00,826.00,VWS V14.00,2013-04-08 15:51:00,
2013-04-08 11:56:00,46.7,34.4,30.09,SSE,153,6.0,7.0,62,0.00,,,0.00,835.00,VWS V14.00,2013-04-08 15:56:00,
2013-04-08 12:01:00,46.9,34.6,30.09,SE,136,1.0,3.0,62,0.00,,,0.00,840.00,VWS V14.00,2013-04-08 16:01:00,
2013-04-08 12:06:00,47.0,34.3,30.09,SE,143,1.0,2.0,61,0.00,,,0.00,846.00,VWS V14.00,2013-04-08 16:06:00,
2013-04-08 12:11:00,47.0,34.3,30.08,SE,138,5.0,7.0,61,0.00,,,0.00,833.00,VWS V14.00,2013-04-08 16:11:00,
2013-04-08 12:17:00,47.1,34.8,30.08,ESE,109,7.0,10.0,62,0.00,,,0.00,853.00,VWS V14.00,2013-04-08 16:17:00,
2013-04-08 12:22:00,47.1,33.9,30.08,SE,145,8.0,8.0,60,0.00,,,0.00,858.00,VWS V14.00,2013-04-08 16:22:00,
2013-04-08 12:27:00,47.1,34.4,30.08,SSE,153,3.0,7.0,61,0.00,,,0.00,861.00,VWS V14.00,2013-04-08 16:27:00,
2013-04-08 12:32:00,47.2,34.9,30.08,ESE,111,7.0,11.0,62,0.00,,,0.00,863.00,VWS V14.00,2013-04-08 16:32:00,
2013-04-08 12:37:00,47.2,34.5,30.08,ESE,103,5.0,15.0,61,0.00,,,0.00,865.00,VWS V14.00,2013-04-08 16:37:00,
2013-04-08 12:42:00,47.2,34.5,30.08,South,170,4.0,6.0,61,0.00,,,0.00,870.00,VWS V14.00,2013-04-08 16:42:00,
2013-04-08 12:47:00,47.0,34.3,30.07,ENE,66,3.0,7.0,61,0.00,,,0.00,868.00,VWS V14.00,2013-04-08 16:47:00,
2013-04-08 12:52:00,47.2,34.9,30.07,SE,146,4.0,9.0,62,0.00,,,0.00,868.00,VWS V14.00,2013-04-08 16:52:00,
2013-04-08 12:57:00,47.6,35.2,30.08,SE,128,2.0,5.0,62,0.00,,,0.00,870.00,VWS V14.00,2013-04-08 16:57:00,
2013-04-08 13:02:00,47.8,34.6,30.08,NNE,26,6.0,8.0,60,0.00,,,0.00,872.00,VWS V14.00,2013-04-08 17:02:00,
2013-04-08 13:07:00,48.3,35.1,30.08,East,101,6.0,8.0,60,0.00,,,0.00,872.00,VWS V14.00,2013-04-08 17:07:00,
2013-04-08 13:12:00,48.6,35.4,30.07,ENE,74,2.0,5.0,60,0.00,,,0.00,872.00,VWS V14.00,2013-04-08 17:12:00,
2013-04-08 13:17:00,48.4,35.2,30.08,South,182,5.0,6.0,60,0.00,,,0.00,868.00,VWS V14.00,2013-04-08 17:17:00,
2013-04-08 13:22:00,48.5,34.8,30.08,SSE,159,6.0,11.0,59,0.00,,,0.00,872.00,VWS V14.00,2013-04-08 17:22:00,
2013-04-08 13:27:00,48.7,35.0,30.07,SSE,148,6.0,12.0,59,0.00,,,0.00,868.00,VWS V14.00,2013-04-08 17:27:00,
2013-04-08 13:32:00,48.7,35.0,30.08,East,81,9.0,10.0,59,0.00,,,0.00,863.00,VWS V14.00,2013-04-08 17:32:00,
2013-04-08 13:37:00,48.3,34.7,30.07,SE,128,0.0,9.0,59,0.00,,,0.00,863.00,VWS V14.00,2013-04-08 17:37:00,
2013-04-08 13:42:00,48.3,34.7,30.07,ENE,57,3.0,8.0,59,0.00,,,0.00,856.00,VWS V14.00,2013-04-08 17:42:00,
2013-04-08 13:47:00,48.6,35.4,30.07,East,100,0.0,5.0,60,0.00,,,0.00,856.00,VWS V14.00,2013-04-08 17:47:00,
2013-04-08 13:52:00,48.8,34.7,30.07,ENE,61,7.0,8.0,58,0.00,,,0.00,854.00,VWS V14.00,2013-04-08 17:52:00,
2013-04-08 13:57:00,48.9,35.2,30.07,ESE,103,4.0,9.0,59,0.00,,,0.00,846.00,VWS V14.00,2013-04-08 17:57:00,
2013-04-08 14:02:00,49.1,35.0,30.07,ENE,67,3.0,7.0,58,0.00,,,0.00,844.00,VWS V14.00,2013-04-08 18:02:00,
2013-04-08 14:07:00,49.3,35.2,30.07,SSE,157,4.0,8.0,58,0.00,,,0.00,838.00,VWS V14.00,2013-04-08 18:07:00,
2013-04-08 14:12:00,49.4,35.7,30.08,South,180,3.0,6.0,59,0.00,,,0.00,831.00,VWS V14.00,2013-04-08 18:12:00,
2013-04-08 14:17:00,49.9,34.8,30.08,East,80,0.0,8.0,56,0.00,,,0.00,828.00,VWS V14.00,2013-04-08 18:17:00,
2013-04-08 14:22:00,50.2,35.1,30.07,NE,56,2.0,3.0,56,0.00,,,0.00,816.00,VWS V14.00,2013-04-08 18:22:00,
2013-04-08 14:27:00,50.8,36.1,30.07,ESE,105,2.0,5.0,57,0.00,,,0.00,817.00,VWS V14.00,2013-04-08 18:27:00,
2013-04-08 14:33:00,50.9,35.8,30.07,NNW,348,1.0,5.0,56,0.00,,,0.00,809.00,VWS V14.00,2013-04-08 18:33:00,
2013-04-08 14:38:00,50.6,35.5,30.07,ENE,59,4.0,7.0,56,0.00,,,0.00,800.00,VWS V14.00,2013-04-08 18:38:00,
2013-04-08 14:43:00,50.4,35.3,30.06,East,79,2.0,8.0,56,0.00,,,0.00,793.00,VWS V14.00,2013-04-08 18:43:00,
2013-04-08 14:48:00,50.6,35.5,30.06,SE,126,3.0,4.0,56,0.00,,,0.00,784.00,VWS V14.00,2013-04-08 18:48:00,
2013-04-08 14:53:00,51.2,35.6,30.06,SSE,148,5.0,8.0,55,0.00,,,0.00,777.00,VWS V14.00,2013-04-08 18:53:00,
2013-04-08 14:58:00,51.1,36.0,30.06,South,184,1.0,4.0,56,0.00,,,0.00,782.00,VWS V14.00,2013-04-08 18:58:00,
2013-04-08 15:03:00,51.0,35.4,30.06,SSE,161,0.0,3.0,55,0.00,,,0.00,756.00,VWS V14.00,2013-04-08 19:03:00,
2013-04-08 15:08:00,50.8,34.8,30.05,South,176,1.0,8.0,54,0.00,,,0.00,682.00,VWS V14.00,2013-04-08 19:08:00,
2013-04-08 15:13:00,51.0,35.4,30.05,SSE,148,1.0,9.0,55,0.00,,,0.00,766.00,VWS V14.00,2013-04-08 19:13:00,
2013-04-08 15:18:00,51.2,35.1,30.05,East,99,2.0,7.0,54,0.00,,,0.00,656.00,VWS V14.00,2013-04-08 19:18:00,
2013-04-08 15:23:00,51.2,35.1,30.05,SE,146,7.0,7.0,54,0.00,,,0.00,561.00,VWS V14.00,2013-04-08 19:23:00,
2013-04-08 15:28:00,50.9,34.9,30.05,East,87,3.0,7.0,54,0.00,,,0.00,383.00,VWS V14.00,2013-04-08 19:28:00,
2013-04-08 15:33:00,50.2,35.1,30.04,ESE,108,5.0,8.0,56,0.00,,,0.00,691.00,VWS V14.00,2013-04-08 19:33:00,
2013-04-08 15:38:00,50.1,34.6,30.04,South,185,3.0,11.0,55,0.00,,,0.00,608.00,VWS V14.00,2013-04-08 19:38:00,
2013-04-08 15:43:00,49.9,34.8,30.04,South,176,5.0,9.0,56,0.00,,,0.00,446.00,VWS V14.00,2013-04-08 19:43:00,
2013-04-08 15:48:00,49.8,35.2,30.05,South,169,3.0,6.0,57,0.00,,,0.00,394.00,VWS V14.00,2013-04-08 19:48:00,
2013-04-08 15:53:00,49.9,35.3,30.04,South,169,1.0,4.0,57,0.00,,,0.00,339.00,VWS V14.00,2013-04-08 19:53:00,
2013-04-08 15:58:00,49.9,34.8,30.04,SSE,166,1.0,7.0,56,0.00,,,0.00,592.00,VWS V14.00,2013-04-08 19:58:00,
2013-04-08 16:03:00,50.0,34.9,30.04,East,82,1.0,6.0,56,0.00,,,0.00,657.00,VWS V14.00,2013-04-08 20:03:00,
2013-04-08 16:08:00,50.1,35.0,30.03,SSE,155,1.0,7.0,56,0.00,,,0.00,608.00,VWS V14.00,2013-04-08 20:08:00,
2013-04-08 16:13:00,50.3,35.7,30.03,SSE,152,2.0,7.0,57,0.00,,,0.00,640.00,VWS V14.00,2013-04-08 20:13:00,
2013-04-08 16:18:00,50.7,34.7,30.02,SSE,151,0.0,3.0,54,0.00,,,0.00,543.00,VWS V14.00,2013-04-08 20:18:00,
2013-04-08 16:23:00,50.8,34.8,30.02,SSE,151,0.0,2.0,54,0.00,,,0.00,401.00,VWS V14.00,2013-04-08 20:23:00,
2013-04-08 16:28:00,50.9,34.9,30.01,ESE,122,3.0,7.0,54,0.00,,,0.00,457.00,VWS V14.00,2013-04-08 20:28:00,
2013-04-08 16:33:00,50.5,34.5,30.01,East,81,5.0,5.0,54,0.00,,,0.00,504.00,VWS V14.00,2013-04-08 20:33:00,
2013-04-08 16:38:00,50.5,35.0,30.01,East,90,2.0,3.0,55,0.00,,,0.00,392.00,VWS V14.00,2013-04-08 20:38:00,
2013-04-08 16:43:00,50.5,35.0,30.01,East,82,3.0,7.0,55,0.00,,,0.00,338.00,VWS V14.00,2013-04-08 20:43:00,
2013-04-08 16:48:00,50.4,34.9,30.01,SE,144,5.0,9.0,55,0.00,,,0.00,246.00,VWS V14.00,2013-04-08 20:48:00,
2013-04-08 16:53:00,50.4,35.3,30.01,SE,139,1.0,6.0,56,0.00,,,0.00,338.00,VWS V14.00,2013-04-08 20:53:00,
2013-04-08 16:58:00,50.4,34.9,30.01,SE,145,3.0,5.0,55,0.00,,,0.00,292.00,VWS V14.00,2013-04-08 20:58:00,
2013-04-08 17:03:00,50.3,34.8,30.01,SSE,153,3.0,4.0,55,0.00,,,0.00,262.00,VWS V14.00,2013-04-08 21:03:00,
2013-04-08 17:08:00,50.2,35.1,30.01,SSE,155,1.0,6.0,56,0.00,,,0.00,244.00,VWS V14.00,2013-04-08 21:08:00,
2013-04-08 17:13:00,50.2,34.7,30.00,ESE,104,3.0,4.0,55,0.00,,,0.00,267.00,VWS V14.00,2013-04-08 21:13:00,
2013-04-08 17:18:00,50.3,35.2,30.01,SSE,165,1.0,5.0,56,0.00,,,0.00,241.00,VWS V14.00,2013-04-08 21:18:00,
2013-04-08 17:23:00,50.3,34.8,30.01,SSE,157,0.0,3.0,55,0.00,,,0.00,204.00,VWS V14.00,2013-04-08 21:23:00,
2013-04-08 17:29:00,50.3,34.8,30.01,SSE,165,1.0,4.0,55,0.00,,,0.00,183.00,VWS V14.00,2013-04-08 21:29:00,
2013-04-08 17:34:00,50.4,34.9,30.01,South,170,1.0,3.0,55,0.00,,,0.00,162.00,VWS V14.00,2013-04-08 21:34:00,
2013-04-08 17:39:00,50.4,34.9,30.01,SSE,159,3.0,5.0,55,0.00,,,0.00,193.00,VWS V14.00,2013-04-08 21:39:00,
2013-04-08 17:44:00,50.3,35.2,30.01,SSE,159,0.0,1.0,56,0.00,,,0.00,199.00,VWS V14.00,2013-04-08 21:44:00,
2013-04-08 17:49:00,50.3,35.2,30.01,SSE,148,2.0,3.0,56,0.00,,,0.00,195.00,VWS V14.00,2013-04-08 21:49:00,
2013-04-08 17:54:00,50.1,35.0,30.01,SSE,148,0.0,3.0,56,0.00,,,0.00,158.00,VWS V14.00,2013-04-08 21:54:00,
2013-04-08 17:59:00,50.0,34.9,30.01,ESE,103,1.0,3.0,56,0.00,,,0.00,123.00,VWS V14.00,2013-04-08 21:59:00,
2013-04-08 18:04:00,49.7,35.1,30.00,SSE,148,1.0,5.0,57,0.00,,,0.00,114.00,VWS V14.00,2013-04-08 22:04:00,
2013-04-08 18:09:00,49.5,34.9,30.00,SE,130,0.0,3.0,57,0.00,,,0.00,98.00,VWS V14.00,2013-04-08 22:09:00,
2013-04-08 18:14:00,49.2,34.6,30.00,SE,130,0.0,2.0,57,0.00,,,0.00,88.00,VWS V14.00,2013-04-08 22:14:00,
2013-04-08 18:19:00,49.1,35.0,30.01,SE,130,0.0,1.0,58,0.00,,,0.00,83.00,VWS V14.00,2013-04-08 22:19:00,
2013-04-08 18:24:00,49.0,34.5,30.01,SE,130,0.0,2.0,57,0.00,,,0.00,77.00,VWS V14.00,2013-04-08 22:24:00,
2013-04-08 18:29:00,49.0,34.9,30.01,SE,130,0.0,1.0,58,0.00,,,0.00,70.00,VWS V14.00,2013-04-08 22:29:00,
2013-04-08 18:34:00,48.9,34.8,30.00,SE,130,0.0,1.0,58,0.00,,,0.00,62.00,VWS V14.00,2013-04-08 22:34:00,
2013-04-08 18:39:00,48.7,34.6,30.00,SE,130,0.0,3.0,58,0.00,,,0.00,53.00,VWS V14.00,2013-04-08 22:39:00,
2013-04-08 18:44:00,48.5,34.4,30.00,SE,130,0.0,2.0,58,0.00,,,0.00,46.00,VWS V14.00,2013-04-08 22:44:00,
2013-04-08 18:49:00,48.4,34.8,30.00,SE,130,0.0,0.0,59,0.00,,,0.00,39.00,VWS V14.00,2013-04-08 22:49:00,
2013-04-08 18:54:00,48.2,34.6,30.00,SE,130,0.0,1.0,59,0.00,,,0.00,32.00,VWS V14.00,2013-04-08 22:54:00,
2013-04-08 19:00:00,48.1,34.9,30.01,SE,137,0.0,2.0,60,0.00,,,0.00,26.00,VWS V14.00,2013-04-08 23:00:00,
2013-04-08 19:05:00,47.9,34.3,30.00,SE,137,0.0,0.0,59,0.00,,,0.00,21.00,VWS V14.00,2013-04-08 23:05:00,
2013-04-08 19:10:00,47.7,34.1,30.00,SE,137,0.0,0.0,59,0.00,,,0.00,18.00,VWS V14.00,2013-04-08 23:10:00,
2013-04-08 19:15:00,47.5,33.9,30.00,SE,137,0.0,0.0,59,0.00,,,0.00,11.00,VWS V14.00,2013-04-08 23:15:00,
2013-04-08 19:20:00,47.2,34.0,30.00,SE,137,0.0,1.0,60,0.00,,,0.00,7.00,VWS V14.00,2013-04-08 23:20:00,
2013-04-08 19:25:00,46.8,34.1,30.01,SE,137,0.0,1.0,61,0.00,,,0.00,0.00,VWS V14.00,2013-04-08 23:25:00,
2013-04-08 19:30:00,46.5,33.8,30.01,SE,137,0.0,1.0,61,0.00,,,0.00,0.00,VWS V14.00,2013-04-08 23:30:00,
2013-04-08 19:35:00,46.2,33.9,30.01,SE,137,0.0,1.0,62,0.00,,,0.00,0.00,VWS V14.00,2013-04-08 23:35:00,
2013-04-08 19:40:00,45.8,33.9,30.01,SE,137,0.0,2.0,63,0.00,,,0.00,0.00,VWS V14.00,2013-04-08 23:40:00,
2013-04-08 19:45:00,45.5,33.7,30.01,SE,137,0.0,0.0,63,0.00,,,0.00,0.00,VWS V14.00,2013-04-08 23:45:00,
2013-04-08 19:50:00,45.3,33.5,30.00,SE,137,0.0,0.0,63,0.00,,,0.00,0.00,VWS V14.00,2013-04-08 23:50:00,
2013-04-08 19:55:00,45.1,33.7,30.00,SE,137,0.0,0.0,64,0.00,,,0.00,0.00,VWS V14.00,2013-04-08 23:55:00,
2013-04-08 20:00:00,44.9,33.5,30.00,SE,137,2.0,3.0,64,0.00,,,0.00,0.00,VWS V14.00,2013-04-09 00:00:00,
2013-04-08 20:05:00,44.5,33.5,30.00,North,360,3.0,4.0,65,0.00,,,0.00,0.00,VWS V14.00,2013-04-09 00:05:00,
2013-04-08 20:10:00,44.1,33.5,30.01,NNW,346,4.0,4.0,66,0.00,,,0.00,0.00,VWS V14.00,2013-04-09 00:10:00,
2013-04-08 20:15:00,43.9,33.3,30.00,NNW,346,0.0,3.0,66,0.00,,,0.00,0.00,VWS V14.00,2013-04-09 00:15:00,
2013-04-08 20:20:00,43.7,33.5,30.00,NNW,346,0.0,1.0,67,0.00,,,0.00,0.00,VWS V14.00,2013-04-09 00:20:00,
2013-04-08 20:25:00,43.4,33.2,30.00,NNW,346,0.0,2.0,67,0.00,,,0.00,0.00,VWS V14.00,2013-04-09 00:25:00,
2013-04-08 20:30:00,43.3,33.5,30.00,NNW,346,0.0,1.0,68,0.00,,,0.00,0.00,VWS V14.00,2013-04-09 00:30:00,
2013-04-08 20:35:00,43.1,33.3,30.00,NNW,346,0.0,1.0,68,0.00,,,0.00,0.00,VWS V14.00,2013-04-09 00:35:00,
2013-04-08 20:40:00,42.9,33.4,30.01,NNW,346,0.0,0.0,69,0.00,,,0.00,0.00,VWS V14.00,2013-04-09 00:40:00,
2013-04-08 20:45:00,42.7,33.2,30.01,NNW,346,0.0,1.0,69,0.00,,,0.00,0.00,VWS V14.00,2013-04-09 00:45:00,
2013-04-08 20:50:00,42.6,33.2,30.01,NNW,346,0.0,0.0,69,0.00,,,0.00,0.00,VWS V14.00,2013-04-09 00:50:00,
2013-04-08 20:56:00,42.4,33.3,30.01,NNW,346,0.0,1.0,70,0.00,,,0.00,0.00,VWS V14.00,2013-04-09 00:56:00,
2013-04-08 21:01:00,42.2,33.1,30.01,NNW,346,0.0,1.0,70,0.00,,,0.00,0.00,VWS V14.00,2013-04-09 01:01:00,
2013-04-08 21:06:00,42.1,33.4,30.01,NNW,346,2.0,2.0,71,0.00,,,0.00,0.00,VWS V14.00,2013-04-09 01:06:00,
2013-04-08 21:11:00,41.9,33.2,30.01,NNW,346,0.0,0.0,71,0.00,,,0.00,0.00,VWS V14.00,2013-04-09 01:11:00,
2013-04-08 21:16:00,41.7,33.0,30.00,NNW,346,0.0,0.0,71,0.00,,,0.00,0.00,VWS V14.00,2013-04-09 01:16:00,
2013-04-08 21:21:00,41.6,32.9,30.00,NNW,346,2.0,3.0,71,0.00,,,0.00,0.00,VWS V14.00,2013-04-09 01:21:00,
2013-04-08 21:26:00,41.4,33.1,30.00,NNW,346,1.0,1.0,72,0.00,,,0.00,0.00,VWS V14.00,2013-04-09 01:26:00,
2013-04-08 21:31:00,41.3,33.0,30.00,NNW,346,1.0,2.0,72,0.00,,,0.00,0.00,VWS V14.00,2013-04-09 01:31:00,
2013-04-08 21:36:00,41.1,32.8,30.00,NNW,346,0.0,0.0,72,0.00,,,0.00,0.00,VWS V14.00,2013-04-09 01:36:00,
2013-04-08 21:41:00,41.1,33.1,30.00,NNW,346,0.0,0.0,73,0.00,,,0.00,0.00,VWS V14.00,2013-04-09 01:41:00,
2013-04-08 21:46:00,41.0,33.0,29.99,NNW,346,0.0,0.0,73,0.00,,,0.00,0.00,VWS V14.00,2013-04-09 01:46:00,
2013-04-08 21:51:00,41.0,33.4,29.99,NNW,346,0.0,0.0,74,0.00,,,0.00,0.00,VWS V14.00,2013-04-09 01:51:00,
2013-04-08 21:57:00,41.0,33.4,29.98,NNW,346,3.0,3.0,74,0.00,,,0.00,0.00,VWS V14.00,2013-04-09 01:57:00,
2013-04-08 22:02:00,40.9,33.3,29.98,NNW,346,2.0,2.0,74,0.00,,,0.00,0.00,VWS V14.00,2013-04-09 02:02:00,
2013-04-08 22:07:00,40.8,33.2,29.98,NNW,344,2.0,3.0,74,0.00,,,0.00,0.00,VWS V14.00,2013-04-09 02:07:00,
2013-04-08 22:12:00,40.7,33.1,29.98,NNW,333,0.0,2.0,74,0.00,,,0.00,0.00,VWS V14.00,2013-04-09 02:12:00,
2013-04-08 22:17:00,40.7,33.1,29.98,NNW,333,0.0,0.0,74,0.00,,,0.00,0.00,VWS V14.00,2013-04-09 02:17:00,
2013-04-08 22:22:00,40.8,33.5,29.97,NNW,333,0.0,0.0,75,0.00,,,0.00,0.00,VWS V14.00,2013-04-09 02:22:00,
2013-04-08 22:27:00,40.9,33.6,29.97,NNW,333,0.0,0.0,75,0.00,,,0.00,0.00,VWS V14.00,2013-04-09 02:27:00,
2013-04-08 22:32:00,40.9,33.6,29.96,NW,323,0.0,1.0,75,0.00,,,0.00,0.00,VWS V14.00,2013-04-09 02:32:00,
2013-04-08 22:37:00,41.0,33.7,29.96,NW,323,0.0,1.0,75,0.00,,,0.00,0.00,VWS V14.00,2013-04-09 02:37:00,
2013-04-08 22:42:00,41.0,33.7,29.96,NW,323,1.0,2.0,75,0.00,,,0.00,0.00,VWS V14.00,2013-04-09 02:42:00,
2013-04-08 22:47:00,41.1,33.8,29.95,NW,323,0.0,1.0,75,0.00,,,0.00,0.00,VWS V14.00,2013-04-09 02:47:00,
2013-04-08 22:52:00,41.2,33.9,29.94,NW,324,3.0,3.0,75,0.00,,,0.00,0.00,VWS V14.00,2013-04-09 02:52:00,
2013-04-08 22:57:00,41.2,33.5,29.94,NW,324,1.0,2.0,74,0.00,,,0.00,0.00,VWS V14.00,2013-04-09 02:57:00,
2013-04-08 23:02:00,41.1,33.5,29.94,NW,324,3.0,5.0,74,0.00,,,0.00,0.00,VWS V14.00,2013-04-09 03:02:00,
2013-04-08 23:07:00,41.2,33.9,29.94,NW,324,0.0,0.0,75,0.00,,,0.00,0.00,VWS V14.00,2013-04-09 03:07:00,
2013-04-08 23:12:00,41.2,34.2,29.95,NW,324,2.0,2.0,76,0.00,,,0.00,0.00,VWS V14.00,2013-04-09 03:12:00,
2013-04-08 23:17:00,41.3,35.0,29.94,NW,324,0.0,2.0,78,0.00,,,0.00,0.00,VWS V14.00,2013-04-09 03:17:00,
2013-04-08 23:22:00,41.2,35.2,29.93,NW,324,0.0,0.0,79,0.00,,,0.00,0.00,VWS V14.00,2013-04-09 03:22:00,
2013-04-08 23:28:00,41.3,35.9,29.93,NW,324,1.0,1.0,81,0.00,,,0.00,0.00,VWS V14.00,2013-04-09 03:28:00,
2013-04-08 23:33:00,41.3,35.9,29.93,NW,324,0.0,1.0,81,0.00,,,0.00,0.00,VWS V14.00,2013-04-09 03:33:00,
2013-04-08 23:38:00,41.3,36.2,29.91,NNW,340,3.0,4.0,82,0.00,,,0.00,0.00,VWS V14.00,2013-04-09 03:38:00,
2013-04-08 23:43:00,41.1,36.0,29.91,NNW,340,3.0,5.0,82,0.00,,,0.00,0.00,VWS V14.00,2013-04-09 03:43:00,
2013-04-08 23:48:00,40.9,36.1,29.91,NNW,332,4.0,4.0,83,0.00,,,0.00,0.00,VWS V14.00,2013-04-09 03:48:00,
2013-04-08 23:53:00,40.7,36.0,29.92,NNW,331,1.0,4.0,83,0.00,,,0.00,0.00,VWS V14.00,2013-04-09 03:53:00,
2013-04-08 23:58:00,40.5,36.0,29.92,NNW,330,0.0,3.0,84,0.01,,,0.01,0.00,VWS V14.00,2013-04-09 03:58:00,